Time,TemperatureF,DewpointF,PressureIn,WindDirection,WindDirectionDegrees,WindSpeedMPH,WindSpeedGustMPH,Humidity,HourlyPrecipIn,Conditions,Clouds,dailyrainin,SoftwareType,DateUTC
2013-10-22 00:01:00,45.7,45.7,29.89,WSW,257,0.0,-999.0,100,0.00,,,-99.99,WeatherUpdate +1.0,2013-10-22 07:01:00,
2013-10-22 00:06:00,45.6,45.6,29.89,WSW,257,0.0,-999.0,100,0.00,,,-99.99,WeatherUpdate +1.0,2013-10-22 07:06:00,
2013-10-22 00:11:00,45.7,45.7,29.89,WSW,257,0.0,-999.0,100,0.00,,,-99.99,WeatherUpdate +1.0,2013-10-22 07:11:00,
2013-10-22 00:17:00,45.8,45.8,29.89,WSW,257,1.0,1.0,100,0.00,,,-99.99,WeatherUpdate +1.0,2013-10-22 07:17:00,
2013-10-22 00:22:00,45.7,45.7,29.89,WSW,257,0.0,-999.0,100,0.00,,,-99.99,WeatherUpdate +1.0,2013-10-22 07:22:00,
2013-10-22 00:27:00,45.6,45.6,29.89,WSW,257,0.0,-999.0,100,0.00,,,-99.99,WeatherUpdate +1.0,2013-10-22 07:27:00,
2013-10-22 00:32:00,45.6,45.6,29.89,WSW,257,0.0,1.0,100,0.00,,,-99.99,WeatherUpdate +1.0,2013-10-22 07:32:00,
2013-10-22 00:37:00,45.6,45.6,29.89,WSW,257,0.0,1.0,100,0.00,,,-99.99,WeatherUpdate +1.0,2013-10-22 07:37:00,
2013-10-22 00:42:00,45.6,45.6,29.89,WSW,257,0.0,1.0,100,0.00,,,-99.99,WeatherUpdate +1.0,2013-10-22 07:42:00,
2013-10-22 00:47:00,45.6,45.6,29.89,WSW,257,0.0,1.0,100,0.00,,,-99.99,WeatherUpdate +1.0,2013-10-22 07:47:00,
2013-10-22 00:52:00,45.7,45.7,29.89,WSW,257,0.0,-999.0,100,0.00,,,-99.99,WeatherUpdate +1.0,2013-10-22 07:52:00,
2013-10-22 00:57:00,45.7,45.7,29.89,WSW,257,0.0,-999.0,100,0.00,,,-99.99,WeatherUpdate +1.0,2013-10-22 07:57:00,
2013-10-22 01:02:00,45.7,45.7,29.89,WSW,257,0.0,-999.0,100,0.00,,,-99.99,WeatherUpdate +1.0,2013-10-22 08:02:00,
2013-10-22 01:07:00,45.7,45.7,29.89,WSW,257,0.0,1.0,100,0.00,,,-99.99,WeatherUpdate +1.0,2013-10-22 08:07:00,
2013-10-22 01:12:00,45.7,45.7,29.89,WSW,257,0.0,-999.0,100,0.00,,,-99.99,WeatherUpdate +1.0,2013-10-22 08:12:00,
2013-10-22 01:17:00,45.7,45.7,29.89,WSW,257,0.0,-999.0,100,0.00,,,-99.99,WeatherUpdate +1.0,2013-10-22 08:17:00,
2013-10-22 01:22:00,45.7,45.7,29.89,WSW,257,1.0,1.0,100,0.00,,,-99.99,WeatherUpdate +1.0,2013-10-22 08:22:00,
2013-10-22 01:27:00,45.7,45.7,29.89,WSW,257,0.0,1.0,100,0.00,,,-99.99,WeatherUpdate +1.0,2013-10-22 08:27:00,
2013-10-22 01:32:00,45.7,45.7,29.89,WSW,257,0.0,-999.0,100,0.00,,,-99.99,WeatherUpdate +1.0,2013-10-22 08:32:00,
2013-10-22 01:37:00,45.8,45.8,29.89,WSW,257,0.0,1.0,100,0.00,,,-99.99,WeatherUpdate +1.0,2013-10-22 08:37:00,
2013-10-22 01:43:00,45.8,45.8,29.89,WSW,257,0.0,-999.0,100,0.00,,,-99.99,WeatherUpdate +1.0,2013-10-22 08:43:00,
2013-10-22 01:48:00,45.8,45.8,29.89,WSW,257,0.0,1.0,100,0.00,,,-99.99,WeatherUpdate +1.0,2013-10-22 08:48:00,
2013-10-22 01:53:00,45.8,45.8,29.89,WSW,257,1.0,1.0,100,0.00,,,-99.99,WeatherUpdate +1.0,2013-10-22 08:53:00,
2013-10-22 01:58:00,45.7,45.7,29.89,WSW,257,0.0,1.0,100,0.00,,,-99.99,WeatherUpdate +1.0,2013-10-22 08:58:00,
2013-10-22 02:03:00,45.6,45.6,29.88,WSW,257,0.0,-999.0,100,0.00,,,-99.99,WeatherUpdate +1.0,2013-10-22 09:03:00,
2013-10-22 02:08:00,45.5,45.5,29.89,WSW,257,1.0,2.0,100,0.00,,,-99.99,WeatherUpdate +1.0,2013-10-22 09:08:00,
2013-10-22 02:13:00,45.5,45.5,29.89,WSW,257,0.0,1.0,100,0.00,,,-99.99,WeatherUpdate +1.0,2013-10-22 09:13:00,
2013-10-22 02:18:00,45.5,45.5,29.89,WSW,257,0.0,1.0,100,0.00,,,-99.99,WeatherUpdate +1.0,2013-10-22 09:18:00,
2013-10-22 02:23:00,45.6,45.6,29.89,WSW,257,1.0,1.0,100,0.00,,,-99.99,WeatherUpdate +1.0,2013-10-22 09:23:00,
2013-10-22 02:28:00,45.5,45.5,29.89,WSW,257,1.0,1.0,100,0.00,,,-99.99,WeatherUpdate +1.0,2013-10-22 09:28:00,
2013-10-22 02:33:00,45.6,45.6,29.89,WSW,257,1.0,2.0,100,0.00,,,-99.99,WeatherUpdate +1.0,2013-10-22 09:33:00,
2013-10-22 02:38:00,45.5,45.5,29.89,WSW,257,0.0,1.0,100,0.00,,,-99.99,WeatherUpdate +1.0,2013-10-22 09:38:00,
2013-10-22 02:43:00,45.4,45.4,29.89,WSW,257,2.0,3.0,100,0.00,,,-99.99,WeatherUpdate +1.0,2013-10-22 09:43:00,
2013-10-22 02:48:00,45.3,45.3,29.88,WSW,257,0.0,2.0,100,0.00,,,-99.99,WeatherUpdate +1.0,2013-10-22 09:48:00,
2013-10-22 02:53:00,45.2,45.2,29.89,WSW,257,0.0,1.0,100,0.00,,,-99.99,WeatherUpdate +1.0,2013-10-22 09:53:00,
2013-10-22 02:58:00,45.2,45.2,29.88,WSW,257,0.0,-999.0,100,0.00,,,-99.99,WeatherUpdate +1.0,2013-10-22 09:58:00,
2013-10-22 03:03:00,45.2,45.2,29.89,WSW,257,0.0,-999.0,100,0.00,,,-99.99,WeatherUpdate +1.0,2013-10-22 10:03:00,
2013-10-22 03:08:00,45.0,45.0,29.88,WSW,257,0.0,1.0,100,0.00,,,-99.99,WeatherUpdate +1.0,2013-10-22 10:08:00,
2013-10-22 03:13:00,44.8,44.8,29.88,WSW,257,0.0,-999.0,100,0.00,,,-99.99,WeatherUpdate +1.0,2013-10-22 10:13:00,
2013-10-22 03:18:00,44.7,44.7,29.88,WSW,257,0.0,-999.0,100,0.00,,,-99.99,WeatherUpdate +1.0,2013-10-22 10:18:00,
2013-10-22 03:23:00,44.8,44.8,29.88,WSW,257,0.0,1.0,100,0.00,,,-99.99,WeatherUpdate +1.0,2013-10-22 10:23:00,
2013-10-22 03:28:00,44.7,44.7,29.88,WSW,257,1.0,1.0,100,0.00,,,-99.99,WeatherUpdate +1.0,2013-10-22 10:28:00,
2013-10-22 03:34:00,44.6,44.6,29.88,WSW,257,0.0,-999.0,100,0.00,,,-99.99,WeatherUpdate +1.0,2013-10-22 10:34:00,
2013-10-22 03:39:00,44.5,44.5,29.89,WSW,257,1.0,1.0,100,0.00,,,-99.99,WeatherUpdate +1.0,2013-10-22 10:39:00,
2013-10-22 03:44:00,44.4,44.4,29.89,WSW,257,0.0,-999.0,100,0.00,,,-99.99,WeatherUpdate +1.0,2013-10-22 10:44:00,
2013-10-22 03:49:00,44.3,44.3,29.88,WSW,257,0.0,-999.0,100,0.00,,,-99.99,WeatherUpdate +1.0,2013-10-22 10:49:00,
2013-10-22 03:54:00,44.2,44.2,29.89,WSW,257,0.0,1.0,100,0.00,,,-99.99,WeatherUpdate +1.0,2013-10-22 10:54:00,
2013-10-22 03:59:00,44.1,44.1,29.89,WSW,257,0.0,1.0,100,0.00,,,-99.99,WeatherUpdate +1.0,2013-10-22 10:59:00,
2013-10-22 04:04:00,44.0,44.0,29.88,WSW,257,0.0,-999.0,100,0.00,,,-99.99,WeatherUpdate +1.0,2013-10-22 11:04:00,
2013-10-22 04:09:00,44.0,44.0,29.88,WSW,257,0.0,-999.0,100,0.00,,,-99.99,WeatherUpdate +1.0,2013-10-22 11:09:00,
2013-10-22 04:14:00,43.9,43.9,29.88,WSW,257,1.0,2.0,100,0.00,,,-99.99,WeatherUpdate +1.0,2013-10-22 11:14:00,
2013-10-22 04:19:00,43.9,43.9,29.88,WSW,257,0.0,-999.0,100,0.00,,,-99.99,WeatherUpdate +1.0,2013-10-22 11:19:00,
2013-10-22 04:24:00,43.9,43.9,29.88,WSW,257,0.0,1.0,100,0.00,,,-99.99,WeatherUpdate +1.0,2013-10-22 11:24:00,
2013-10-22 04:29:00,43.8,43.8,29.88,WSW,257,0.0,-999.0,100,0.00,,,-99.99,WeatherUpdate +1.0,2013-10-22 11:29:00,
2013-10-22 04:34:00,43.7,43.7,29.88,WSW,257,1.0,1.0,100,0.00,,,-99.99,WeatherUpdate +1.0,2013-10-22 11:34:00,
2013-10-22 04:39:00,43.5,43.5,29.88,WSW,257,0.0,2.0,100,0.00,,,-99.99,WeatherUpdate +1.0,2013-10-22 11:39:00,
2013-10-22 04:44:00,43.4,43.4,29.88,WSW,257,0.0,2.0,100,0.00,,,-99.99,WeatherUpdate +1.0,2013-10-22 11:44:00,
2013-10-22 04:49:00,43.3,43.3,29.88,WSW,257,0.0,1.0,100,0.00,,,-99.99,WeatherUpdate +1.0,2013-10-22 11:49:00,
2013-10-22 04:54:00,43.3,43.3,29.88,WSW,257,0.0,-999.0,100,0.00,,,-99.99,WeatherUpdate +1.0,2013-10-22 11:54:00,
2013-10-22 04:59:00,43.2,43.2,29.87,WSW,257,0.0,1.0,100,0.00,,,-99.99,WeatherUpdate +1.0,2013-10-22 11:59:00,
2013-10-22 05:04:00,43.1,43.1,29.88,WSW,257,0.0,1.0,100,0.00,,,-99.99,WeatherUpdate +1.0,2013-10-22 12:04:00,
2013-10-22 05:10:00,43.1,43.1,29.88,WSW,257,0.0,-999.0,100,0.00,,,-99.99,WeatherUpdate +1.0,2013-10-22 12:10:00,
2013-10-22 05:15:00,43.0,43.0,29.87,WSW,257,0.0,-999.0,100,0.00,,,-99.99,WeatherUpdate +1.0,2013-10-22 12:15:00,
2013-10-22 05:20:00,43.0,43.0,29.88,WSW,257,0.0,1.0,100,0.00,,,-99.99,WeatherUpdate +1.0,2013-10-22 12:20:00,
2013-10-22 05:25:00,42.9,42.9,29.88,WSW,257,0.0,-999.0,100,0.00,,,-99.99,WeatherUpdate +1.0,2013-10-22 12:25:00,
2013-10-22 05:30:00,42.8,42.8,29.88,WSW,257,0.0,-999.0,100,0.00,,,-99.99,WeatherUpdate +1.0,2013-10-22 12:30:00,
2013-10-22 05:35:00,42.8,42.8,29.88,WSW,257,0.0,-999.0,100,0.00,,,-99.99,WeatherUpdate +1.0,2013-10-22 12:35:00,
2013-10-22 05:40:00,42.8,42.8,29.88,WSW,257,0.0,-999.0,100,0.00,,,-99.99,WeatherUpdate +1.0,2013-10-22 12:40:00,
2013-10-22 05:45:00,42.8,42.8,29.88,WSW,257,0.0,-999.0,100,0.00,,,-99.99,WeatherUpdate +1.0,2013-10-22 12:45:00,
2013-10-22 05:50:00,42.8,42.8,29.87,WSW,257,0.0,-999.0,100,0.00,,,-99.99,WeatherUpdate +1.0,2013-10-22 12:50:00,
2013-10-22 05:55:00,42.9,42.9,29.88,WSW,257,0.0,2.0,100,0.00,,,-99.99,WeatherUpdate +1.0,2013-10-22 12:55:00,
2013-10-22 06:00:00,42.8,42.8,29.87,WSW,257,0.0,1.0,100,0.01,,,-99.99,WeatherUpdate +1.0,2013-10-22 13:00:00,
2013-10-22 06:05:00,42.8,42.8,29.87,WSW,257,0.0,-999.0,100,0.01,,,-99.99,WeatherUpdate +1.0,2013-10-22 13:05:00,
2013-10-22 06:10:00,42.8,42.8,29.87,WSW,257,1.0,1.0,100,0.01,,,-99.99,WeatherUpdate +1.0,2013-10-22 13:10:00,
2013-10-22 06:15:00,42.8,42.8,29.88,WSW,257,1.0,1.0,100,0.01,,,-99.99,WeatherUpdate +1.0,2013-10-22 13:15:00,
2013-10-22 06:20:00,42.7,42.7,29.88,WSW,257,0.0,-999.0,100,0.01,,,-99.99,WeatherUpdate +1.0,2013-10-22 13:20:00,
2013-10-22 06:25:00,42.7,42.7,29.88,WSW,257,1.0,1.0,100,0.01,,,-99.99,WeatherUpdate +1.0,2013-10-22 13:25:00,
2013-10-22 06:30:00,42.6,42.6,29.87,WSW,257,0.0,-999.0,100,0.01,,,-99.99,WeatherUpdate +1.0,2013-10-22 13:30:00,
2013-10-22 06:35:00,42.6,42.6,29.87,WSW,257,0.0,-999.0,100,0.01,,,-99.99,WeatherUpdate +1.0,2013-10-22 13:35:00,
2013-10-22 06:41:00,42.5,42.5,29.88,WSW,257,0.0,-999.0,100,0.01,,,-99.99,WeatherUpdate +1.0,2013-10-22 13:41:00,
2013-10-22 06:46:00,42.3,42.3,29.87,WSW,257,0.0,1.0,100,0.01,,,-99.99,WeatherUpdate +1.0,2013-10-22 13:46:00,
2013-10-22 06:51:00,42.3,42.3,29.87,WSW,257,0.0,1.0,100,0.01,,,-99.99,WeatherUpdate +1.0,2013-10-22 13:51:00,
2013-10-22 06:56:00,42.2,42.2,29.87,WSW,257,0.0,1.0,100,0.01,,,-99.99,WeatherUpdate +1.0,2013-10-22 13:56:00,
2013-10-22 07:01:00,42.1,42.1,29.87,WSW,257,0.0,-999.0,100,0.00,,,-99.99,WeatherUpdate +1.0,2013-10-22 14:01:00,
2013-10-22 07:06:00,42.1,42.1,29.87,WSW,257,0.0,-999.0,100,0.00,,,-99.99,WeatherUpdate +1.0,2013-10-22 14:06:00,
2013-10-22 07:11:00,42.0,42.0,29.87,WSW,257,0.0,-999.0,100,0.00,,,-99.99,WeatherUpdate +1.0,2013-10-22 14:11:00,
2013-10-22 07:16:00,42.0,42.0,29.87,WSW,257,0.0,-999.0,100,0.00,,,-99.99,WeatherUpdate +1.0,2013-10-22 14:16:00,
2013-10-22 07:21:00,41.9,41.9,29.87,WSW,257,0.0,-999.0,100,0.00,,,-99.99,WeatherUpdate +1.0,2013-10-22 14:21:00,
2013-10-22 07:26:00,41.8,41.8,29.88,WSW,257,0.0,-999.0,100,0.00,,,-99.99,WeatherUpdate +1.0,2013-10-22 14:26:00,
2013-10-22 07:31:00,41.7,41.7,29.87,WSW,257,0.0,-999.0,100,0.00,,,-99.99,WeatherUpdate +1.0,2013-10-22 14:31:00,
2013-10-22 07:36:00,41.8,41.8,29.88,WSW,257,0.0,-999.0,100,0.00,,,-99.99,WeatherUpdate +1.0,2013-10-22 14:36:00,
2013-10-22 07:41:00,41.8,41.8,29.88,WSW,257,0.0,-999.0,100,0.00,,,-99.99,WeatherUpdate +1.0,2013-10-22 14:41:00,
2013-10-22 07:46:00,41.9,41.9,29.88,WSW,257,0.0,-999.0,100,0.00,,,-99.99,WeatherUpdate +1.0,2013-10-22 14:46:00,
2013-10-22 07:51:00,41.9,41.9,29.87,WSW,257,1.0,2.0,100,0.00,,,-99.99,WeatherUpdate +1.0,2013-10-22 14:51:00,
2013-10-22 07:56:00,42.1,42.1,29.87,WSW,257,0.0,-999.0,100,0.00,,,-99.99,WeatherUpdate +1.0,2013-10-22 14:56:00,
2013-10-22 08:01:00,42.1,42.1,29.87,WSW,257,1.0,1.0,100,0.00,,,-99.99,WeatherUpdate +1.0,2013-10-22 15:01:00,
2013-10-22 08:06:00,42.2,42.2,29.88,WSW,257,0.0,-999.0,100,0.00,,,-99.99,WeatherUpdate +1.0,2013-10-22 15:06:00,
2013-10-22 08:12:00,42.2,42.2,29.88,WSW,257,1.0,1.0,100,0.00,,,-99.99,WeatherUpdate +1.0,2013-10-22 15:12:00,
2013-10-22 08:17:00,42.1,42.1,29.88,WSW,257,1.0,1.0,100,0.00,,,-99.99,WeatherUpdate +1.0,2013-10-22 15:17:00,
2013-10-22 08:22:00,42.0,42.0,29.88,WSW,257,0.0,1.0,100,0.00,,,-99.99,WeatherUpdate +1.0,2013-10-22 15:22:00,
2013-10-22 08:27:00,41.9,41.9,29.88,WSW,257,0.0,-999.0,100,0.00,,,-99.99,WeatherUpdate +1.0,2013-10-22 15:27:00,
2013-10-22 08:32:00,41.9,41.9,29.87,WSW,257,0.0,-999.0,100,0.00,,,-99.99,WeatherUpdate +1.0,2013-10-22 15:32:00,
2013-10-22 08:37:00,41.9,41.9,29.88,WSW,257,1.0,1.0,100,0.00,,,-99.99,WeatherUpdate +1.0,2013-10-22 15:37:00,
2013-10-22 08:42:00,41.8,41.8,29.88,WSW,257,0.0,1.0,100,0.00,,,-99.99,WeatherUpdate +1.0,2013-10-22 15:42:00,
2013-10-22 08:47:00,41.8,41.8,29.88,WSW,257,0.0,-999.0,100,0.00,,,-99.99,WeatherUpdate +1.0,2013-10-22 15:47:00,
2013-10-22 08:52:00,41.9,41.9,29.88,WSW,257,0.0,1.0,100,0.00,,,-99.99,WeatherUpdate +1.0,2013-10-22 15:52:00,
2013-10-22 08:57:00,41.8,41.8,29.88,WSW,257,0.0,1.0,100,0.00,,,-99.99,WeatherUpdate +1.0,2013-10-22 15:57:00,
2013-10-22 09:02:00,41.8,41.8,29.88,WSW,257,0.0,-999.0,100,0.00,,,-99.99,WeatherUpdate +1.0,2013-10-22 16:02:00,
2013-10-22 09:07:00,41.8,41.8,29.88,WSW,257,0.0,1.0,100,0.00,,,-99.99,WeatherUpdate +1.0,2013-10-22 16:07:00,
2013-10-22 09:12:00,41.8,41.8,29.88,WSW,257,0.0,-999.0,100,0.00,,,-99.99,WeatherUpdate +1.0,2013-10-22 16:12:00,
2013-10-22 09:17:00,42.0,42.0,29.88,WSW,257,0.0,1.0,100,0.00,,,-99.99,WeatherUpdate +1.0,2013-10-22 16:17:00,
2013-10-22 09:22:00,42.1,42.1,29.87,WSW,257,1.0,1.0,100,0.00,,,-99.99,WeatherUpdate +1.0,2013-10-22 16:22:00,
2013-10-22 09:27:00,42.2,42.2,29.88,WSW,257,1.0,1.0,100,0.00,,,-99.99,WeatherUpdate +1.0,2013-10-22 16:27:00,
2013-10-22 09:32:00,42.3,42.3,29.88,WSW,257,3.0,3.0,100,0.00,,,-99.99,WeatherUpdate +1.0,2013-10-22 16:32:00,
2013-10-22 09:38:00,42.3,42.3,29.88,WSW,257,0.0,-999.0,100,0.00,,,-99.99,WeatherUpdate +1.0,2013-10-22 16:38:00,
2013-10-22 09:43:00,42.2,42.2,29.88,WSW,257,0.0,-999.0,100,0.00,,,-99.99,WeatherUpdate +1.0,2013-10-22 16:43:00,
2013-10-22 09:48:00,42.3,42.3,29.88,WSW,257,1.0,1.0,100,0.00,,,-99.99,WeatherUpdate +1.0,2013-10-22 16:48:00,
2013-10-22 09:53:00,42.3,42.3,29.88,WSW,257,0.0,-999.0,100,0.00,,,-99.99,WeatherUpdate +1.0,2013-10-22 16:53:00,
2013-10-22 09:58:00,42.5,42.5,29.88,WSW,257,0.0,-999.0,100,0.00,,,-99.99,WeatherUpdate +1.0,2013-10-22 16:58:00,
2013-10-22 10:03:00,42.7,42.7,29.88,WSW,257,0.0,1.0,100,0.00,,,-99.99,WeatherUpdate +1.0,2013-10-22 17:03:00,
2013-10-22 10:08:00,42.8,42.8,29.88,WSW,257,0.0,-999.0,100,0.00,,,-99.99,WeatherUpdate +1.0,2013-10-22 17:08:00,
2013-10-22 10:13:00,42.9,42.9,29.88,WSW,257,0.0,-999.0,100,0.00,,,-99.99,WeatherUpdate +1.0,2013-10-22 17:13:00,
2013-10-22 10:18:00,43.0,43.0,29.88,WSW,257,0.0,-999.0,100,0.00,,,-99.99,WeatherUpdate +1.0,2013-10-22 17:18:00,
2013-10-22 10:23:00,43.4,43.4,29.88,WSW,257,0.0,1.0,100,0.00,,,-99.99,WeatherUpdate +1.0,2013-10-22 17:23:00,
2013-10-22 10:28:00,43.5,43.5,29.88,WSW,257,0.0,-999.0,100,0.00,,,-99.99,WeatherUpdate +1.0,2013-10-22 17:28:00,
2013-10-22 10:34:00,43.5,43.5,29.87,WSW,257,0.0,-999.0,100,0.00,,,-99.99,WeatherUpdate +1.0,2013-10-22 17:34:00,
2013-10-22 10:39:00,43.7,43.7,29.87,WSW,257,0.0,-999.0,100,0.00,,,-99.99,WeatherUpdate +1.0,2013-10-22 17:39:00,
2013-10-22 10:44:00,43.8,43.8,29.87,WSW,257,0.0,-999.0,100,0.00,,,-99.99,WeatherUpdate +1.0,2013-10-22 17:44:00,
2013-10-22 10:49:00,44.0,44.0,29.87,WSW,257,0.0,-999.0,100,0.00,,,-99.99,WeatherUpdate +1.0,2013-10-22 17:49:00,
2013-10-22 10:54:00,44.3,44.3,29.88,WSW,257,0.0,-999.0,100,0.00,,,-99.99,WeatherUpdate +1.0,2013-10-22 17:54:00,
2013-10-22 10:59:00,44.4,44.4,29.87,WSW,257,0.0,-999.0,100,0.00,,,-99.99,WeatherUpdate +1.0,2013-10-22 17:59:00,
2013-10-22 11:04:00,44.6,44.6,29.87,WSW,257,0.0,-999.0,100,0.00,,,-99.99,WeatherUpdate +1.0,2013-10-22 18:04:00,
2013-10-22 11:09:00,44.8,44.8,29.87,WSW,257,0.0,-999.0,100,0.00,,,-99.99,WeatherUpdate +1.0,2013-10-22 18:09:00,
2013-10-22 11:14:00,45.1,45.1,29.87,WSW,257,0.0,-999.0,100,0.01,,,-99.99,WeatherUpdate +1.0,2013-10-22 18:14:00,
2013-10-22 11:19:00,45.2,45.2,29.87,WSW,257,0.0,-999.0,100,0.01,,,-99.99,WeatherUpdate +1.0,2013-10-22 18:19:00,
2013-10-22 11:24:00,45.4,45.4,29.87,WSW,257,0.0,-999.0,100,0.01,,,-99.99,WeatherUpdate +1.0,2013-10-22 18:24:00,
2013-10-22 11:29:00,45.8,45.8,29.86,WSW,257,0.0,-999.0,100,0.01,,,-99.99,WeatherUpdate +1.0,2013-10-22 18:29:00,
2013-10-22 11:34:00,45.9,45.9,29.86,WSW,257,0.0,-999.0,100,0.01,,,-99.99,WeatherUpdate +1.0,2013-10-22 18:34:00,
2013-10-22 11:39:00,46.2,46.2,29.86,WSW,257,0.0,-999.0,100,0.01,,,-99.99,WeatherUpdate +1.0,2013-10-22 18:39:00,
2013-10-22 11:44:00,46.4,46.4,29.86,WSW,257,0.0,-999.0,100,0.01,,,-99.99,WeatherUpdate +1.0,2013-10-22 18:44:00,
2013-10-22 11:49:00,46.4,46.4,29.86,WSW,257,0.0,-999.0,100,0.01,,,-99.99,WeatherUpdate +1.0,2013-10-22 18:49:00,
2013-10-22 11:55:00,46.8,46.8,29.86,WSW,257,0.0,-999.0,100,0.01,,,-99.99,WeatherUpdate +1.0,2013-10-22 18:55:00,
2013-10-22 12:00:00,46.9,46.9,29.86,WSW,257,0.0,-999.0,100,0.01,,,-99.99,WeatherUpdate +1.0,2013-10-22 19:00:00,
2013-10-22 12:05:00,47.1,47.1,29.86,WSW,257,0.0,-999.0,100,0.01,,,-99.99,WeatherUpdate +1.0,2013-10-22 19:05:00,
2013-10-22 12:10:00,47.1,47.1,29.86,WSW,257,0.0,-999.0,100,0.00,,,-99.99,WeatherUpdate +1.0,2013-10-22 19:10:00,
2013-10-22 12:15:00,47.2,47.2,29.86,WSW,257,0.0,-999.0,100,0.00,,,-99.99,WeatherUpdate +1.0,2013-10-22 19:15:00,
2013-10-22 12:20:00,47.6,47.6,29.86,WSW,257,0.0,-999.0,100,0.00,,,-99.99,WeatherUpdate +1.0,2013-10-22 19:20:00,
2013-10-22 12:25:00,47.8,47.8,29.85,WSW,257,0.0,-999.0,100,0.00,,,-99.99,WeatherUpdate +1.0,2013-10-22 19:25:00,
2013-10-22 12:30:00,48.1,48.1,29.85,WSW,257,0.0,-999.0,100,0.00,,,-99.99,WeatherUpdate +1.0,2013-10-22 19:30:00,
2013-10-22 12:35:00,48.4,48.4,29.85,WSW,257,0.0,-999.0,100,0.00,,,-99.99,WeatherUpdate +1.0,2013-10-22 19:35:00,
2013-10-22 12:40:00,48.6,48.6,29.85,WSW,257,0.0,-999.0,100,0.00,,,-99.99,WeatherUpdate +1.0,2013-10-22 19:40:00,
2013-10-22 12:45:00,48.8,48.8,29.85,WSW,257,0.0,-999.0,100,0.00,,,-99.99,WeatherUpdate +1.0,2013-10-22 19:45:00,
2013-10-22 12:50:00,48.9,48.9,29.85,WSW,257,1.0,2.0,100,0.00,,,-99.99,WeatherUpdate +1.0,2013-10-22 19:50:00,
2013-10-22 12:55:00,49.4,49.4,29.85,WSW,257,3.0,3.0,100,0.00,,,-99.99,WeatherUpdate +1.0,2013-10-22 19:55:00,
2013-10-22 13:00:00,49.6,49.6,29.85,WSW,257,1.0,1.0,100,0.00,,,-99.99,WeatherUpdate +1.0,2013-10-22 20:00:00,
2013-10-22 13:05:00,49.9,49.9,29.84,WSW,257,2.0,2.0,100,0.00,,,-99.99,WeatherUpdate +1.0,2013-10-22 20:05:00,
2013-10-22 13:11:00,50.2,50.2,29.84,WSW,257,1.0,1.0,100,0.00,,,-99.99,WeatherUpdate +1.0,2013-10-22 20:11:00,
2013-10-22 13:16:00,50.6,50.6,29.84,WSW,257,2.0,2.0,100,0.00,,,-99.99,WeatherUpdate +1.0,2013-10-22 20:16:00,
2013-10-22 13:21:00,50.8,50.8,29.84,WSW,257,0.0,1.0,100,0.00,,,-99.99,WeatherUpdate +1.0,2013-10-22 20:21:00,
2013-10-22 13:26:00,51.2,51.2,29.84,WSW,257,1.0,2.0,100,0.00,,,-99.99,WeatherUpdate +1.0,2013-10-22 20:26:00,
2013-10-22 13:31:00,51.6,51.6,29.83,WSW,257,0.0,-999.0,100,0.00,,,-99.99,WeatherUpdate +1.0,2013-10-22 20:31:00,
2013-10-22 13:36:00,51.8,51.8,29.83,WSW,257,4.0,4.0,100,0.00,,,-99.99,WeatherUpdate +1.0,2013-10-22 20:36:00,
2013-10-22 13:41:00,52.3,52.3,29.83,WSW,257,2.0,2.0,100,0.00,,,-99.99,WeatherUpdate +1.0,2013-10-22 20:41:00,
2013-10-22 13:46:00,52.7,52.7,29.83,WSW,257,1.0,2.0,100,0.00,,,-99.99,WeatherUpdate +1.0,2013-10-22 20:46:00,
2013-10-22 13:51:00,52.9,52.9,29.83,WSW,257,1.0,2.0,100,0.00,,,-99.99,WeatherUpdate +1.0,2013-10-22 20:51:00,
2013-10-22 13:56:00,53.1,53.1,29.83,WSW,257,1.0,1.0,100,0.00,,,-99.99,WeatherUpdate +1.0,2013-10-22 20:56:00,
2013-10-22 14:01:00,53.5,53.5,29.83,WSW,257,0.0,2.0,100,0.00,,,-99.99,WeatherUpdate +1.0,2013-10-22 21:01:00,
2013-10-22 14:06:00,53.9,53.9,29.83,WSW,257,0.0,1.0,100,0.00,,,-99.99,WeatherUpdate +1.0,2013-10-22 21:06:00,
2013-10-22 14:11:00,54.4,54.4,29.82,WSW,257,0.0,1.0,100,0.00,,,-99.99,WeatherUpdate +1.0,2013-10-22 21:11:00,
2013-10-22 14:16:00,54.9,54.9,29.82,WSW,257,3.0,3.0,100,0.00,,,-99.99,WeatherUpdate +1.0,2013-10-22 21:16:00,
2013-10-22 14:22:00,55.2,55.2,29.82,WSW,257,0.0,1.0,100,0.00,,,-99.99,WeatherUpdate +1.0,2013-10-22 21:22:00,
2013-10-22 14:27:00,55.6,55.6,29.82,WSW,257,2.0,2.0,100,0.00,,,-99.99,WeatherUpdate +1.0,2013-10-22 21:27:00,
2013-10-22 14:32:00,55.9,55.9,29.82,WSW,257,3.0,4.0,100,0.00,,,-99.99,WeatherUpdate +1.0,2013-10-22 21:32:00,
2013-10-22 14:37:00,56.6,56.6,29.82,WSW,257,1.0,1.0,100,0.00,,,-99.99,WeatherUpdate +1.0,2013-10-22 21:37:00,
2013-10-22 14:42:00,57.0,57.0,29.82,WSW,257,3.0,4.0,100,0.00,,,-99.99,WeatherUpdate +1.0,2013-10-22 21:42:00,
2013-10-22 14:47:00,57.4,57.4,29.82,WSW,257,1.0,2.0,100,0.00,,,-99.99,WeatherUpdate +1.0,2013-10-22 21:47:00,
2013-10-22 14:52:00,57.6,57.6,29.82,WSW,257,0.0,-999.0,100,0.00,,,-99.99,WeatherUpdate +1.0,2013-10-22 21:52:00,
2013-10-22 14:57:00,58.2,58.2,29.82,WSW,257,0.0,1.0,100,0.00,,,-99.99,WeatherUpdate +1.0,2013-10-22 21:57:00,
2013-10-22 15:02:00,58.1,58.1,29.82,WSW,257,0.0,2.0,100,0.00,,,-99.99,WeatherUpdate +1.0,2013-10-22 22:02:00,
2013-10-22 15:07:00,58.3,58.3,29.82,WSW,257,1.0,3.0,100,0.00,,,-99.99,WeatherUpdate +1.0,2013-10-22 22:07:00,
2013-10-22 15:12:00,58.7,58.7,29.82,WSW,257,2.0,2.0,100,0.00,,,-99.99,WeatherUpdate +1.0,2013-10-22 22:12:00,
2013-10-22 15:17:00,58.8,58.8,29.81,WSW,257,2.0,2.0,100,0.00,,,-99.99,WeatherUpdate +1.0,2013-10-22 22:17:00,
2013-10-22 15:22:00,58.8,58.8,29.82,WSW,257,1.0,1.0,100,0.00,,,-99.99,WeatherUpdate +1.0,2013-10-22 22:22:00,
2013-10-22 15:27:00,58.8,58.8,29.82,WSW,257,0.0,1.0,100,0.01,,,-99.99,WeatherUpdate +1.0,2013-10-22 22:27:00,
2013-10-22 15:32:00,59.3,59.3,29.81,WSW,257,0.0,1.0,100,0.01,,,-99.99,WeatherUpdate +1.0,2013-10-22 22:32:00,
2013-10-22 15:37:00,59.7,59.7,29.82,WSW,257,2.0,2.0,100,0.02,,,-99.99,WeatherUpdate +1.0,2013-10-22 22:37:00,
2013-10-22 15:43:00,59.7,59.7,29.81,WSW,257,1.0,2.0,100,0.02,,,-99.99,WeatherUpdate +1.0,2013-10-22 22:43:00,
2013-10-22 15:48:00,59.6,59.6,29.81,WSW,257,4.0,4.0,100,0.02,,,-99.99,WeatherUpdate +1.0,2013-10-22 22:48:00,
2013-10-22 15:53:00,59.5,59.5,29.81,WSW,257,3.0,4.0,100,0.02,,,-99.99,WeatherUpdate +1.0,2013-10-22 22:53:00,
2013-10-22 15:58:00,59.5,59.5,29.81,WSW,257,2.0,3.0,100,0.02,,,-99.99,WeatherUpdate +1.0,2013-10-22 22:58:00,
2013-10-22 16:03:00,59.7,59.7,29.81,WSW,257,1.0,2.0,100,0.02,,,-99.99,WeatherUpdate +1.0,2013-10-22 23:03:00,
2013-10-22 16:08:00,59.4,59.4,29.81,WSW,257,2.0,4.0,100,0.02,,,-99.99,WeatherUpdate +1.0,2013-10-22 23:08:00,
2013-10-22 16:13:00,59.5,59.5,29.81,WSW,257,1.0,2.0,100,0.02,,,-99.99,WeatherUpdate +1.0,2013-10-22 23:13:00,
2013-10-22 16:18:00,59.4,59.4,29.81,WSW,257,3.0,3.0,100,0.02,,,-99.99,WeatherUpdate +1.0,2013-10-22 23:18:00,
2013-10-22 16:23:00,59.1,59.1,29.81,WSW,253,3.0,4.0,100,0.02,,,-99.99,WeatherUpdate +1.0,2013-10-22 23:23:00,
2013-10-22 16:28:00,58.9,58.9,29.80,SW,232,2.0,2.0,100,0.01,,,-99.99,WeatherUpdate +1.0,2013-10-22 23:28:00,
2013-10-22 16:33:00,58.9,58.9,29.80,West,280,4.0,4.0,100,0.01,,,-99.99,WeatherUpdate +1.0,2013-10-22 23:33:00,
2013-10-22 16:38:00,58.5,58.5,29.80,West,277,1.0,2.0,100,0.00,,,-99.99,WeatherUpdate +1.0,2013-10-22 23:38:00,
2013-10-22 16:43:00,58.0,58.0,29.80,WSW,252,3.0,4.0,100,0.00,,,-99.99,WeatherUpdate +1.0,2013-10-22 23:43:00,
2013-10-22 16:48:00,57.8,57.8,29.80,WSW,253,2.0,2.0,100,0.00,,,-99.99,WeatherUpdate +1.0,2013-10-22 23:48:00,
2013-10-22 16:54:00,57.6,57.6,29.80,SW,235,2.0,3.0,100,0.00,,,-99.99,WeatherUpdate +1.0,2013-10-22 23:54:00,
2013-10-22 16:59:00,57.3,57.3,29.79,WSW,256,3.0,3.0,100,0.00,,,-99.99,WeatherUpdate +1.0,2013-10-22 23:59:00,
2013-10-22 17:04:00,57.2,57.2,29.79,WSW,256,0.0,-999.0,100,0.01,,,-99.99,WeatherUpdate +1.0,2013-10-23 00:04:00,
2013-10-22 17:09:00,56.8,56.8,29.79,WSW,249,3.0,4.0,100,0.01,,,-99.99,WeatherUpdate +1.0,2013-10-23 00:09:00,
2013-10-22 17:14:00,56.3,56.3,29.79,West,262,2.0,3.0,100,0.02,,,-99.99,WeatherUpdate +1.0,2013-10-23 00:14:00,
2013-10-22 17:19:00,55.9,55.9,29.79,WSW,239,1.0,5.0,100,0.03,,,-99.99,WeatherUpdate +1.0,2013-10-23 00:19:00,
2013-10-22 17:24:00,55.3,55.3,29.79,WSW,243,2.0,3.0,100,0.03,,,-99.99,WeatherUpdate +1.0,2013-10-23 00:24:00,
2013-10-22 17:29:00,54.7,54.7,29.79,West,276,1.0,1.0,100,0.03,,,-99.99,WeatherUpdate +1.0,2013-10-23 00:29:00,
2013-10-22 17:35:00,54.0,54.0,29.79,WSW,237,1.0,2.0,100,0.03,,,-99.99,WeatherUpdate +1.0,2013-10-23 00:35:00,
2013-10-22 17:40:00,53.2,53.2,29.79,WSW,241,3.0,3.0,100,0.03,,,-99.99,WeatherUpdate +1.0,2013-10-23 00:40:00,
2013-10-22 17:45:00,52.5,52.5,29.79,WSW,241,1.0,1.0,100,0.03,,,-99.99,WeatherUpdate +1.0,2013-10-23 00:45:00,
2013-10-22 17:50:00,51.8,51.8,29.79,WSW,243,1.0,2.0,100,0.03,,,-99.99,WeatherUpdate +1.0,2013-10-23 00:50:00,
2013-10-22 17:55:00,51.3,51.3,29.79,WSW,243,0.0,2.0,100,0.03,,,-99.99,WeatherUpdate +1.0,2013-10-23 00:55:00,
2013-10-22 18:00:00,50.7,50.7,29.79,WSW,243,1.0,3.0,100,0.03,,,-99.99,WeatherUpdate +1.0,2013-10-23 01:00:00,
2013-10-22 18:05:00,50.1,50.1,29.79,WSW,243,2.0,2.0,100,0.02,,,-99.99,WeatherUpdate +1.0,2013-10-23 01:05:00,
2013-10-22 18:10:00,49.3,49.3,29.79,WSW,243,3.0,3.0,100,0.02,,,-99.99,WeatherUpdate +1.0,2013-10-23 01:10:00,
2013-10-22 18:15:00,48.8,48.8,29.79,WSW,243,2.0,3.0,100,0.01,,,-99.99,WeatherUpdate +1.0,2013-10-23 01:15:00,
2013-10-22 18:20:00,48.6,48.6,29.79,WSW,243,4.0,5.0,100,0.00,,,-99.99,WeatherUpdate +1.0,2013-10-23 01:20:00,
2013-10-22 18:25:00,48.4,48.4,29.79,WSW,243,1.0,2.0,100,0.00,,,-99.99,WeatherUpdate +1.0,2013-10-23 01:25:00,
2013-10-22 18:30:00,48.2,48.2,29.78,WSW,243,1.0,3.0,100,0.00,,,-99.99,WeatherUpdate +1.0,2013-10-23 01:30:00,
2013-10-22 18:35:00,47.9,47.9,29.79,WSW,243,2.0,2.0,100,0.00,,,-99.99,WeatherUpdate +1.0,2013-10-23 01:35:00,
2013-10-22 18:41:00,47.8,47.8,29.78,WSW,243,3.0,4.0,100,0.00,,,-99.99,WeatherUpdate +1.0,2013-10-23 01:41:00,
2013-10-22 18:46:00,47.7,47.7,29.78,WSW,243,0.0,1.0,100,0.00,,,-99.99,WeatherUpdate +1.0,2013-10-23 01:46:00,
2013-10-22 18:51:00,47.6,47.6,29.79,WSW,243,1.0,1.0,100,0.00,,,-99.99,WeatherUpdate +1.0,2013-10-23 01:51:00,
2013-10-22 18:56:00,47.5,47.5,29.79,WSW,243,0.0,-999.0,100,0.00,,,-99.99,WeatherUpdate +1.0,2013-10-23 01:56:00,
2013-10-22 19:01:00,47.4,47.4,29.79,WSW,243,0.0,2.0,100,0.00,,,-99.99,WeatherUpdate +1.0,2013-10-23 02:01:00,
2013-10-22 19:06:00,47.4,47.4,29.79,WSW,243,0.0,1.0,100,0.00,,,-99.99,WeatherUpdate +1.0,2013-10-23 02:06:00,
2013-10-22 19:11:00,47.2,47.2,29.79,WSW,243,0.0,1.0,100,0.00,,,-99.99,WeatherUpdate +1.0,2013-10-23 02:11:00,
2013-10-22 19:16:00,47.1,47.1,29.79,WSW,243,2.0,3.0,100,0.00,,,-99.99,WeatherUpdate +1.0,2013-10-23 02:16:00,
2013-10-22 19:21:00,47.0,47.0,29.79,WSW,243,0.0,1.0,100,0.00,,,-99.99,WeatherUpdate +1.0,2013-10-23 02:21:00,
2013-10-22 19:26:00,46.9,46.9,29.79,WSW,243,2.0,2.0,100,0.00,,,-99.99,WeatherUpdate +1.0,2013-10-23 02:26:00,
2013-10-22 19:31:00,46.9,46.9,29.79,WSW,243,0.0,-999.0,100,0.00,,,-99.99,WeatherUpdate +1.0,2013-10-23 02:31:00,
2013-10-22 19:36:00,46.8,46.8,29.79,WSW,243,3.0,3.0,100,0.00,,,-99.99,WeatherUpdate +1.0,2013-10-23 02:36:00,
2013-10-22 19:41:00,46.7,46.7,29.79,WSW,243,2.0,2.0,100,0.00,,,-99.99,WeatherUpdate +1.0,2013-10-23 02:41:00,
2013-10-22 19:47:00,46.6,46.6,29.79,WSW,243,2.0,2.0,100,0.00,,,-99.99,WeatherUpdate +1.0,2013-10-23 02:47:00,
2013-10-22 19:52:00,46.6,46.6,29.79,WSW,243,0.0,2.0,100,0.00,,,-99.99,WeatherUpdate +1.0,2013-10-23 02:52:00,
2013-10-22 19:57:00,46.5,46.5,29.79,WSW,243,0.0,1.0,100,0.00,,,-99.99,WeatherUpdate +1.0,2013-10-23 02:57:00,
2013-10-22 20:02:00,46.4,46.4,29.79,WSW,243,1.0,2.0,100,0.00,,,-99.99,WeatherUpdate +1.0,2013-10-23 03:02:00,
2013-10-22 20:07:00,46.3,46.3,29.79,WSW,243,0.0,1.0,100,0.00,,,-99.99,WeatherUpdate +1.0,2013-10-23 03:07:00,
2013-10-22 20:12:00,46.2,46.2,29.79,WSW,243,2.0,4.0,100,0.00,,,-99.99,WeatherUpdate +1.0,2013-10-23 03:12:00,
2013-10-22 20:17:00,46.1,46.1,29.79,WSW,243,0.0,1.0,100,0.00,,,-99.99,WeatherUpdate +1.0,2013-10-23 03:17:00,
2013-10-22 20:22:00,46.0,46.0,29.79,WSW,243,0.0,1.0,100,0.00,,,-99.99,WeatherUpdate +1.0,2013-10-23 03:22:00,
2013-10-22 20:27:00,45.8,45.8,29.79,WSW,243,0.0,-999.0,100,0.00,,,-99.99,WeatherUpdate +1.0,2013-10-23 03:27:00,
2013-10-22 20:32:00,45.7,45.7,29.79,WSW,243,0.0,-999.0,100,0.00,,,-99.99,WeatherUpdate +1.0,2013-10-23 03:32:00,
2013-10-22 20:37:00,45.6,45.6,29.80,WSW,243,0.0,-999.0,100,0.00,,,-99.99,WeatherUpdate +1.0,2013-10-23 03:37:00,
2013-10-22 20:42:00,45.6,45.6,29.80,WSW,243,0.0,-999.0,100,0.00,,,-99.99,WeatherUpdate +1.0,2013-10-23 03:42:00,
2013-10-22 20:47:00,45.6,45.6,29.79,WSW,243,0.0,-999.0,100,0.00,,,-99.99,WeatherUpdate +1.0,2013-10-23 03:47:00,
2013-10-22 20:52:00,45.6,45.6,29.80,WSW,243,0.0,-999.0,100,0.00,,,-99.99,WeatherUpdate +1.0,2013-10-23 03:52:00,
2013-10-22 20:58:00,45.5,45.5,29.80,WSW,243,1.0,1.0,100,0.00,,,-99.99,WeatherUpdate +1.0,2013-10-23 03:58:00,
2013-10-22 21:01:00,45.5,45.5,29.80,WSW,243,0.0,-999.0,100,0.00,,,-99.99,WeatherUpdate +1.0,2013-10-23 04:01:00,
2013-10-22 21:02:00,45.5,45.5,29.80,WSW,243,0.0,-999.0,100,0.00,,,-99.99,WeatherUpdate +1.0,2013-10-23 04:02:00,
2013-10-22 21:07:00,45.4,45.4,29.80,WSW,243,1.0,2.0,100,0.00,,,-99.99,WeatherUpdate +1.0,2013-10-23 04:07:00,
2013-10-22 21:09:00,45.4,45.4,29.80,WSW,243,0.0,-999.0,100,0.00,,,-99.99,WeatherUpdate +1.0,2013-10-23 04:09:00,
2013-10-22 21:14:00,45.4,45.4,29.80,WSW,243,0.0,-999.0,100,0.00,,,-99.99,WeatherUpdate +1.0,2013-10-23 04:14:00,
2013-10-22 21:19:00,45.3,45.3,29.80,WSW,243,0.0,-999.0,100,0.00,,,-99.99,WeatherUpdate +1.0,2013-10-23 04:19:00,
2013-10-22 21:24:00,45.1,45.1,29.80,WSW,243,0.0,-999.0,100,0.00,,,-99.99,WeatherUpdate +1.0,2013-10-23 04:24:00,
2013-10-22 21:29:00,45.0,45.0,29.80,WSW,243,0.0,1.0,100,0.00,,,-99.99,WeatherUpdate +1.0,2013-10-23 04:29:00,
2013-10-22 21:34:00,44.9,44.9,29.80,WSW,243,0.0,-999.0,100,0.00,,,-99.99,WeatherUpdate +1.0,2013-10-23 04:34:00,
2013-10-22 21:40:00,44.7,44.7,29.80,WSW,243,0.0,1.0,100,0.00,,,-99.99,WeatherUpdate +1.0,2013-10-23 04:40:00,
2013-10-22 21:45:00,44.6,44.6,29.80,WSW,243,0.0,-999.0,100,0.00,,,-99.99,WeatherUpdate +1.0,2013-10-23 04:45:00,
2013-10-22 21:50:00,44.5,44.5,29.80,WSW,243,0.0,-999.0,100,0.00,,,-99.99,WeatherUpdate +1.0,2013-10-23 04:50:00,
2013-10-22 21:55:00,44.5,44.5,29.80,WSW,243,0.0,-999.0,100,0.00,,,-99.99,WeatherUpdate +1.0,2013-10-23 04:55:00,
2013-10-22 22:00:00,44.4,44.4,29.80,WSW,243,0.0,-999.0,100,0.00,,,-99.99,WeatherUpdate +1.0,2013-10-23 05:00:00,
2013-10-22 22:05:00,44.4,44.4,29.80,WSW,243,0.0,-999.0,100,0.00,,,-99.99,WeatherUpdate +1.0,2013-10-23 05:05:00,
2013-10-22 22:10:00,44.4,44.4,29.80,WSW,243,2.0,2.0,100,0.00,,,-99.99,WeatherUpdate +1.0,2013-10-23 05:10:00,
2013-10-22 22:15:00,44.5,44.5,29.80,WSW,243,0.0,-999.0,100,0.00,,,-99.99,WeatherUpdate +1.0,2013-10-23 05:15:00,
2013-10-22 22:20:00,44.4,44.4,29.80,WSW,243,0.0,-999.0,100,0.00,,,-99.99,WeatherUpdate +1.0,2013-10-23 05:20:00,
2013-10-22 22:25:00,44.4,44.4,29.80,WSW,243,0.0,-999.0,100,0.00,,,-99.99,WeatherUpdate +1.0,2013-10-23 05:25:00,
2013-10-22 22:30:00,44.3,44.3,29.80,WSW,243,0.0,-999.0,100,0.00,,,-99.99,WeatherUpdate +1.0,2013-10-23 05:30:00,
2013-10-22 22:35:00,44.2,44.2,29.80,WSW,243,0.0,-999.0,100,0.00,,,-99.99,WeatherUpdate +1.0,2013-10-23 05:35:00,
2013-10-22 22:40:00,44.2,44.2,29.80,WSW,243,0.0,-999.0,100,0.00,,,-99.99,WeatherUpdate +1.0,2013-10-23 05:40:00,
2013-10-22 22:46:00,44.2,44.2,29.81,WSW,243,0.0,-999.0,100,0.00,,,-99.99,WeatherUpdate +1.0,2013-10-23 05:46:00,
2013-10-22 22:51:00,44.2,44.2,29.80,WSW,243,0.0,-999.0,100,0.00,,,-99.99,WeatherUpdate +1.0,2013-10-23 05:51:00,
2013-10-22 22:56:00,44.2,44.2,29.80,WSW,243,0.0,-999.0,100,0.00,,,-99.99,WeatherUpdate +1.0,2013-10-23 05:56:00,
2013-10-22 23:01:00,44.3,44.3,29.81,WSW,243,0.0,-999.0,100,0.00,,,-99.99,WeatherUpdate +1.0,2013-10-23 06:01:00,
2013-10-22 23:06:00,44.3,44.3,29.81,WSW,243,0.0,-999.0,100,0.00,,,-99.99,WeatherUpdate +1.0,2013-10-23 06:06:00,
2013-10-22 23:11:00,44.2,44.2,29.80,WSW,243,0.0,-999.0,100,0.00,,,-99.99,WeatherUpdate +1.0,2013-10-23 06:11:00,
2013-10-22 23:16:00,44.1,44.1,29.80,WSW,243,0.0,-999.0,100,0.00,,,-99.99,WeatherUpdate +1.0,2013-10-23 06:16:00,
2013-10-22 23:21:00,44.0,44.0,29.80,WSW,243,0.0,-999.0,100,0.00,,,-99.99,WeatherUpdate +1.0,2013-10-23 06:21:00,
2013-10-22 23:26:00,43.9,43.9,29.80,WSW,243,0.0,-999.0,100,0.00,,,-99.99,WeatherUpdate +1.0,2013-10-23 06:26:00,
2013-10-22 23:31:00,43.8,43.8,29.80,WSW,243,0.0,-999.0,100,0.00,,,-99.99,WeatherUpdate +1.0,2013-10-23 06:31:00,
2013-10-22 23:36:00,43.7,43.7,29.80,WSW,243,0.0,-999.0,100,0.00,,,-99.99,WeatherUpdate +1.0,2013-10-23 06:36:00,
2013-10-22 23:41:00,43.7,43.7,29.80,WSW,243,0.0,-999.0,100,0.00,,,-99.99,WeatherUpdate +1.0,2013-10-23 06:41:00,
2013-10-22 23:46:00,43.7,43.7,29.80,WSW,243,0.0,-999.0,100,0.00,,,-99.99,WeatherUpdate +1.0,2013-10-23 06:46:00,
2013-10-22 23:51:00,43.7,43.7,29.80,WSW,243,0.0,-999.0,100,0.00,,,-99.99,WeatherUpdate +1.0,2013-10-23 06:51:00,
2013-10-22 23:56:00,43.6,43.6,29.80,WSW,243,0.0,-999.0,100,0.00,,,-99.99,WeatherUpdate +1.0,2013-10-23 06:56:00,